QPF
0.04 0.04 0.04 0.05 0.03 0.04 0.06 0.06 0.05 0.02 0.04 0.04 0.03 0.04 0.03 0.02 0.01 0.01 0.02 0.04 0.06 0.07 0.07 0.07 0.07 0.08 0.08 0.09 0.08 0.07 0.06 0.06 0.06 0.10 0.15 0.15 0.14 0.13 0.12 0.11 0.11 0.09 0.09
0.03 0.04 0.04 0.04 0.03 0.03 0.04 0.04 0.04 0.03 0.03 0.03 0.02 0.02 0.02 0.02 0.02 0.01 0.02 0.03 0.06 0.08 0.07 0.07 0.09 0.09 0.08 0.08 0.10 0.08 0.05 0.05 0.05 0.04 0.06 0.08 0.08 0.08 0.07 0.06 0.07 0.06 0.09
0.04 0.04 0.04 0.04 0.04 0.03 0.03 0.03 0.05 0.03 0.01 0.01 0.01 0.01 0.01 0.01 0.02 0.02 0.01 0.02 0.05 0.06 0.05 0.08 0.09 0.09 0.10 0.11 0.12 0.10 0.07 0.05 0.04 0.04 0.06 0.06 0.05 0.05 0.05 0.04 0.03 0.03 0.04
0.04 0.05 0.05 0.04 0.04 0.03 0.02 0.02 0.03 0.02 0.01 0.01 0.01 0.02 0.03 0.02 0.03 0.03 0.03 0.02 0.02 0.03 0.04 0.07 0.10 0.08 0.08 0.09 0.10 0.11 0.09 0.06 0.04 0.04 0.05 0.06 0.04 0.03 0.04 0.04 0.04 0.03 0.03
0.04 0.04 0.04 0.04 0.03 0.02 0.01 0.01 0.01 0.01 0.01 0.01 0.02 0.03 0.03 0.03 0.03 0.02 0.02 0.02 0.03 0.02 0.03 0.04 0.06 0.05 0.07 0.06 0.07 0.08 0.06 0.06 0.04 0.04 0.05 0.06 0.05 0.03 0.02 0.03 0.03 0.03 0.03
0.04 0.04 0.03 0.03 0.02 0.02 0.02 0.02 0.01 0.01 0.01 0.01 0.02 0.02 0.03 0.02 0.02 0.02 0.02 0.02 0.03 0.03 0.02 0.02 0.04 0.06 0.06 0.04 0.04 0.05 0.05 0.04 0.04 0.03 0.04 0.06 0.05 0.02 0.02 0.02 0.03 0.03 0.03
0.05 0.05 0.03 0.02 0.02 0.02 0.02 0.03 0.02 0.01 0.01 0.01 0.02 0.03 0.03 0.02 0.02 0.02 0.02 0.03 0.02 0.02 0.02 0.01 0.02 0.04 0.04 0.04 0.03 0.03 0.04 0.04 0.03 0.03 0.04 0.04 0.04 0.03 0.02 0.01 0.02 0.03 0.03
0.05 0.05 0.03 0.02 0.02 0.02 0.02 0.02 0.02 0.01 0.01 0.01 0.02 0.04 0.04 0.03 0.02 0.02 0.02 0.02 0.02 0.02 0.02 0.02 0.02 0.02 0.04 0.05 0.04 0.03 0.04 0.06 0.06 0.05 0.05 0.04 0.04 0.03 0.03 0.03 0.03 0.04 0.06
0.04 0.05 0.04 0.03 0.02 0.03 0.02 0.01 0.02 0.02 0.02 0.02 0.01 0.02 0.02 0.03 0.02 0.02 0.02 0.03 0.03 0.03 0.03 0.02 0.02 0.03 0.03 0.04 0.03 0.03 0.04 0.05 0.05 0.07 0.07 0.06 0.04 0.03 0.03 0.03 0.03 0.06 0.08
0.03 0.04 0.05 0.03 0.02 0.01 0.01 0.02 0.02 0.03 0.02 0.01 0.01 0.02 0.02 0.02 0.02 0.01 0.02 0.04 0.04 0.04 0.04 0.04 0.04 0.04 0.04 0.03 0.03 0.02 0.03 0.04 0.05 0.07 0.07 0.07 0.07 0.04 0.03 0.03 0.03 0.04 0.06
0.01 0.03 0.05 0.04 0.02 0.01 0.01 0.02 0.02 0.03 0.02 0.02 0.02 0.01 0.02 0.02 0.02 0.01 0.01 0.02 0.03 0.04 0.04 0.04 0.04 0.05 0.05 0.04 0.02 0.02 0.02 0.03 0.04 0.04 0.05 0.06 0.06 0.06 0.04 0.03 0.04 0.04 0.05
0.01 0.02 0.07 0.06 0.02 0.01 0.01 0.01 0.01 0.01 0.02 0.02 0.02 0.02 0.01 0.01 0.02 0.02 0.01 0.01 0.02 0.02 0.02 0.03 0.03 0.04 0.05 0.04 0.02 0.01 0.02 0.03 0.03 0.03 0.02 0.03 0.05 0.06 0.06 0.05 0.04 0.04 0.05
0.02 0.01 0.05 0.07 0.03 0.02 0.02 0.02 0.01 0.01 0.02 0.03 0.03 0.03 0.02 0.01 0.01 0.02 0.02 0.01 0.01 0.01 0.01 0.02 0.03 0.06 0.06 0.03 0.02 0.02 0.02 0.03 0.03 0.03 0.03 0.03 0.03 0.03 0.05 0.05 0.04 0.05 0.06
0.01 0.01 0.04 0.08 0.05 0.02 0.02 0.02 0.02 0.02 0.02 0.03 0.04 0.04 0.03 0.03 0.02 0.02 0.02 0.02 0.01 0.01 0.01 0.02 0.03 0.05 0.05 0.03 0.02 0.02 0.02 0.02 0.03 0.03 0.03 0.03 0.02 0.02 0.03 0.04 0.04 0.03 0.03
0.01 0.01 0.03 0.06 0.07 0.04 0.02 0.02 0.02 0.02 0.03 0.03 0.03 0.04 0.03 0.03 0.04 0.03 0.02 0.02 0.02 0.01 0.01 0.02 0.03 0.07 0.05 0.04 0.04 0.03 0.02 0.03 0.03 0.03 0.03 0.04 0.03 0.02 0.03 0.02 0.02 0.03 0.03
0.02 0.03 0.03 0.05 0.07 0.07 0.04 0.03 0.03 0.02 0.02 0.02 0.03 0.03 0.03 0.03 0.04 0.04 0.03 0.02 0.03 0.03 0.01 0.01 0.02 0.05 0.05 0.04 0.05 0.04 0.02 0.02 0.03 0.02 0.03 0.04 0.04 0.04 0.03 0.03 0.02 0.02 0.02
0.04 0.05 0.04 0.06 0.07 0.06 0.06 0.04 0.04 0.03 0.02 0.01 0.02 0.02 0.03 0.03 0.04 0.04 0.03 0.04 0.04 0.04 0.02 0.02 0.02 0.01 0.02 0.03 0.04 0.03 0.02 0.01 0.01 0.02 0.02 0.02 0.03 0.03 0.04 0.04 0.03 0.03 0.03
0.04 0.07 0.08 0.07 0.07 0.05 0.04 0.04 0.03 0.02 0.02 0.02 0.02 0.01 0.02 0.03 0.03 0.04 0.04 0.04 0.03 0.04 0.03 0.02 0.01 0.01 0.02 0.02 0.03 0.03 0.02 0.02 0.02 0.01 0.01 0.01 0.01 0.02 0.03 0.04 0.05 0.05 0.04
0.03 0.07 0.06 0.06 0.07 0.06 0.03 0.02 0.02 0.02 0.02 0.02 0.02 0.02 0.02 0.03 0.03 0.03 0.03 0.03 0.03 0.04 0.04 0.03 0.02 0.01 0.02 0.02 0.03 0.02 0.02 0.02 0.02 0.02 0.01 0.01 0.00 0.00 0.01 0.02 0.03 0.04 0.05
0.03 0.04 0.04 0.05 0.06 0.06 0.03 0.02 0.02 0.02 0.03 0.02 0.03 0.03 0.03 0.03 0.03 0.04 0.03 0.03 0.03 0.03 0.03 0.03 0.02 0.02 0.02 0.02 0.03 0.02 0.02 0.02 0.02 0.02 0.02 0.02 0.01 0.01 0.01 0.01 0.02 0.03 0.05
0.03 0.03 0.04 0.05 0.06 0.05 0.04 0.03 0.03 0.03 0.03 0.04 0.04 0.04 0.05 0.05 0.06 0.05 0.04 0.04 0.04 0.04 0.03 0.03 0.03 0.03 0.03 0.03 0.04 0.03 0.03 0.03 0.03 0.03 0.03 0.02 0.02 0.02 0.01 0.02 0.01 0.02 0.03
0.04 0.04 0.03 0.04 0.05 0.05 0.05 0.04 0.05 0.06 0.06 0.06 0.05 0.06 0.06 0.05 0.05 0.04 0.04 0.03 0.03 0.02 0.02 0.03 0.04 0.04 0.04 0.05 0.05 0.05 0.05 0.04 0.03 0.03 0.03 0.02 0.03 0.02 0.02 0.02 0.02 0.02 0.02
0.04 0.04 0.04 0.05 0.06 0.08 0.08 0.07 0.06 0.05 0.05 0.05 0.05 0.05 0.04 0.04 0.04 0.03 0.03 0.03 0.03 0.02 0.02 0.02 0.03 0.04 0.05 0.05 0.05 0.05 0.04 0.03 0.03 0.03 0.03 0.02 0.03 0.02 0.02 0.01 0.02 0.01 0.01
0.04 0.05 0.07 0.09 0.09 0.10 0.11 0.10 0.07 0.04 0.03 0.04 0.04 0.04 0.04 0.04 0.04 0.03 0.03 0.02 0.02 0.02 0.02 0.02 0.02 0.03 0.04 0.05 0.06 0.05 0.04 0.03 0.02 0.02 0.02 0.02 0.02 0.02 0.01 0.01 0.01 0.01 0.01
0.04 0.04 0.05 0.08 0.10 0.10 0.13 0.12 0.08 0.03 0.02 0.02 0.02 0.03 0.03 0.02 0.04 0.04 0.03 0.02 0.02 0.03 0.04 0.05 0.06 0.06 0.05 0.05 0.05 0.04 0.03 0.02 0.02 0.02 0.02 0.01 0.01 0.01 0.01 0.01 0.01 0.01 0.01
0.02 0.03 0.03 0.04 0.06 0.07 0.09 0.09 0.06 0.02 0.01 0.01 0.00 0.00 0.01 0.02 0.03 0.03 0.03 0.02 0.02 0.02 0.02 0.02 0.02 0.02 0.02 0.02 0.02 0.02 0.02 0.02 0.02 0.01 0.01 0.01 0.01 0.01 0.01 0.01 0.01 0.01 0.01
MSLP
1005.30 1004.62 1004.00 1003.48 1003.08 1002.77 1002.51 1002.26 1001.94 1001.56 1001.12 1000.69 1000.34 1000.15 1000.18 1000.46 1000.96 1001.63 1002.36 1003.09 1003.73 1004.28 1004.73 1005.16 1005.61 1006.14 1006.79 1007.54 1008.34 1009.14 1009.84 1010.41 1010.81 1011.06 1011.21 1011.32 1011.45 1011.66 1011.97 1012.37 1012.83 1013.31 1013.77
1005.94 1005.31 1004.70 1004.18 1003.78 1003.49 1003.30 1003.17 1003.08 1002.97 1002.85 1002.74 1002.65 1002.63 1002.70 1002.88 1003.16 1003.51 1003.89 1004.27 1004.63 1004.98 1005.33 1005.73 1006.21 1006.79 1007.47 1008.21 1008.97 1009.68 1010.28 1010.74 1011.06 1011.27 1011.40 1011.53 1011.70 1011.94 1012.27 1012.66 1013.10 1013.53 1013.95
1006.56 1006.00 1005.46 1004.97 1004.57 1004.29 1004.12 1004.05 1004.05 1004.09 1004.16 1004.22 1004.29 1004.38 1004.47 1004.58 1004.72 1004.87 1005.03 1005.20 1005.40 1005.65 1005.97 1006.38 1006.89 1007.51 1008.19 1008.90 1009.58 1010.18 1010.67 1011.04 1011.29 1011.46 1011.59 1011.74 1011.95 1012.22 1012.55 1012.93 1013.33 1013.72 1014.09
1007.12 1006.67 1006.21 1005.79 1005.43 1005.16 1004.99 1004.92 1004.94 1005.03 1005.16 1005.31 1005.46 1005.59 1005.70 1005.78 1005.84 1005.89 1005.94 1006.02 1006.16 1006.38 1006.69 1007.12 1007.65 1008.26 1008.90 1009.54 1010.12 1010.61 1010.98 1011.26 1011.45 1011.59 1011.74 1011.92 1012.16 1012.45 1012.79 1013.15 1013.51 1013.84 1014.15
1007.60 1007.27 1006.93 1006.59 1006.29 1006.04 1005.87 1005.78 1005.78 1005.85 1005.98 1006.15 1006.32 1006.48 1006.61 1006.69 1006.74 1006.77 1006.79 1006.85 1006.98 1007.19 1007.51 1007.93 1008.43 1008.99 1009.55 1010.08 1010.54 1010.90 1011.17 1011.36 1011.51 1011.66 1011.83 1012.05 1012.32 1012.63 1012.96 1013.29 1013.60 1013.88 1014.13
1008.02 1007.79 1007.55 1007.32 1007.08 1006.88 1006.71 1006.60 1006.56 1006.60 1006.70 1006.85 1007.03 1007.20 1007.35 1007.47 1007.55 1007.60 1007.65 1007.73 1007.86 1008.07 1008.37 1008.74 1009.18 1009.64 1010.07 1010.46 1010.78 1011.02 1011.20 1011.33 1011.46 1011.62 1011.82 1012.08 1012.39 1012.72 1013.05 1013.35 1013.61 1013.83 1014.04
1008.36 1008.21 1008.06 1007.92 1007.76 1007.60 1007.45 1007.33 1007.27 1007.27 1007.34 1007.47 1007.64 1007.83 1008.02 1008.18 1008.31 1008.41 1008.50 1008.61 1008.75 1008.94 1009.19 1009.49 1009.81 1010.13 1010.42 1010.66 1010.84 1010.97 1011.07 1011.17 1011.30 1011.48 1011.73 1012.03 1012.36 1012.71 1013.03 1013.30 1013.52 1013.70 1013.85
1008.65 1008.54 1008.45 1008.37 1008.28 1008.17 1008.04 1007.93 1007.86 1007.84 1007.89 1008.01 1008.18 1008.39 1008.61 1008.82 1009.00 1009.15 1009.28 1009.41 1009.54 1009.70 1009.88 1010.07 1010.27 1010.45 1010.59 1010.69 1010.75 1010.78 1010.82 1010.90 1011.04 1011.25 1011.54 1011.88 1012.24 1012.58 1012.89 1013.14 1013.33 1013.47 1013.60
1008.91 1008.80 1008.74 1008.70 1008.64 1008.57 1008.47 1008.38 1008.31 1008.28 1008.33 1008.44 1008.62 1008.85 1009.09 1009.34 1009.55 1009.74 1009.90 1010.03 1010.15 1010.26 1010.37 1010.46 1010.54 1010.59 1010.60 1010.58 1010.55 1010.52 1010.52 1010.58 1010.73 1010.97 1011.28 1011.64 1012.01 1012.35 1012.65 1012.87 1013.03 1013.15 1013.26
1009.16 1009.04 1008.97 1008.93 1008.89 1008.84 1008.77 1008.69 1008.63 1008.62 1008.66 1008.78 1008.96 1009.18 1009.44 1009.70 1009.93 1010.14 1010.30 1010.43 1010.52 1010.59 1010.64 1010.66 1010.66 1010.61 1010.54 1010.44 1010.34 1010.26 1010.24 1010.29 1010.44 1010.68 1010.99 1011.35 1011.70 1012.03 1012.30 1012.50 1012.64 1012.75 1012.84
1009.44 1009.28 1009.18 1009.13 1009.09 1009.05 1008.99 1008.93 1008.89 1008.88 1008.93 1009.04 1009.22 1009.43 1009.68 1009.92 1010.15 1010.34 1010.49 1010.61 1010.69 1010.74 1010.75 1010.74 1010.69 1010.60 1010.49 1010.35 1010.22 1010.12 1010.07 1010.10 1010.23 1010.44 1010.72 1011.04 1011.36 1011.65 1011.88 1012.06 1012.18 1012.27 1012.35
1009.77 1009.57 1009.44 1009.36 1009.31 1009.26 1009.22 1009.17 1009.15 1009.15 1009.20 1009.30 1009.46 1009.65 1009.85 1010.06 1010.25 1010.42 1010.55 1010.65 1010.73 1010.77 1010.79 1010.78 1010.74 1010.66 1010.54 1010.40 1010.26 1010.14 1010.06 1010.06 1010.14 1010.29 1010.51 1010.76 1011.01 1011.25 1011.43 1011.57 1011.67 1011.74 1011.82
1010.14 1009.92 1009.77 1009.66 1009.59 1009.55 1009.51 1009.49 1009.48 1009.49 1009.55 1009.63 1009.76 1009.90 1010.06 1010.21 1010.35 1010.48 1010.58 1010.67 1010.74 1010.81 1010.86 1010.89 1010.88 1010.84 1010.76 1010.64 1010.50 1010.36 1010.25 1010.19 1010.19 1010.26 1010.39 1010.54 1010.71 1010.87 1011.01 1011.10 1011.17 1011.22 1011.27
1010.59 1010.36 1010.18 1010.06 1009.99 1009.94 1009.92 1009.91 1009.93 1009.96 1010.02 1010.09 1010.18 1010.28 1010.38 1010.47 1010.55 1010.62 1010.69 1010.77 1010.85 1010.95 1011.04 1011.13 1011.18 1011.19 1011.15 1011.06 1010.93 1010.78 1010.62 1010.49 1010.41 1010.37 1010.39 1010.44 1010.52 1010.59 1010.66 1010.71 1010.74 1010.76 1010.78
1011.09 1010.86 1010.69 1010.57 1010.49 1010.45 1010.45 1010.47 1010.51 1010.56 1010.62 1010.69 1010.76 1010.81 1010.85 1010.88 1010.91 1010.93 1010.97 1011.03 1011.12 1011.24 1011.38 1011.52 1011.64 1011.70 1011.71 1011.65 1011.52 1011.34 1011.14 1010.94 1010.76 1010.62 1010.53 1010.48 1010.45 1010.45 1010.45 1010.45 1010.44 1010.43 1010.42
1011.66 1011.44 1011.27 1011.15 1011.08 1011.06 1011.08 1011.13 1011.20 1011.27 1011.35 1011.42 1011.47 1011.49 1011.49 1011.47 1011.45 1011.43 1011.43 1011.48 1011.57 1011.71 1011.88 1012.06 1012.22 1012.33 1012.36 1012.32 1012.19 1011.99 1011.75 1011.48 1011.22 1010.99 1010.81 1010.66 1010.56 1010.49 1010.43 1010.38 1010.33 1010.28 1010.24
1012.27 1012.07 1011.91 1011.80 1011.74 1011.73 1011.77 1011.84 1011.94 1012.04 1012.14 1012.22 1012.26 1012.27 1012.25 1012.20 1012.14 1012.08 1012.06 1012.09 1012.17 1012.30 1012.48 1012.67 1012.85 1012.98 1013.03 1012.99 1012.86 1012.65 1012.38 1012.07 1011.76 1011.46 1011.21 1011.01 1010.85 1010.72 1010.61 1010.53 1010.44 1010.36 1010.28
1012.90 1012.72 1012.57 1012.46 1012.41 1012.41 1012.46 1012.55 1012.67 1012.79 1012.91 1013.00 1013.05 1013.06 1013.04 1012.97 1012.89 1012.82 1012.78 1012.78 1012.84 1012.95 1013.11 1013.29 1013.46 1013.58 1013.64 1013.60 1013.47 1013.26 1012.98 1012.66 1012.32 1012.01 1011.72 1011.48 1011.28 1011.12 1010.99 1010.87 1010.75 1010.64 1010.52
1013.52 1013.35 1013.21 1013.12 1013.07 1013.07 1013.12 1013.21 1013.33 1013.46 1013.58 1013.68 1013.75 1013.78 1013.76 1013.70 1013.62 1013.54 1013.48 1013.46 1013.49 1013.57 1013.70 1013.84 1013.98 1014.09 1014.13 1014.09 1013.97 1013.77 1013.51 1013.20 1012.89 1012.58 1012.29 1012.05 1011.84 1011.66 1011.50 1011.36 1011.22 1011.07 1010.93
1014.09 1013.94 1013.82 1013.73 1013.68 1013.67 1013.70 1013.78 1013.88 1014.00 1014.11 1014.22 1014.29 1014.34 1014.33 1014.29 1014.23 1014.16 1014.09 1014.05 1014.05 1014.10 1014.18 1014.28 1014.38 1014.45 1014.48 1014.44 1014.34 1014.17 1013.94 1013.68 1013.41 1013.13 1012.88 1012.65 1012.44 1012.26 1012.09 1011.92 1011.76 1011.59 1011.42
1014.58 1014.46 1014.35 1014.27 1014.21 1014.18 1014.19 1014.23 1014.29 1014.38 1014.47 1014.57 1014.65 1014.70 1014.72 1014.71 1014.67 1014.61 1014.55 1014.50 1014.48 1014.48 1014.51 1014.56 1014.62 1014.66 1014.68 1014.65 1014.57 1014.44 1014.27 1014.06 1013.85 1013.62 1013.41 1013.21 1013.02 1012.84 1012.66 1012.48 1012.29 1012.10 1011.90
1014.95 1014.87 1014.79 1014.71 1014.65 1014.59 1014.56 1014.55 1014.56 1014.60 1014.66 1014.73 1014.80 1014.86 1014.90 1014.92 1014.91 1014.87 1014.83 1014.78 1014.73 1014.70 1014.69 1014.70 1014.71 1014.73 1014.73 1014.70 1014.65 1014.57 1014.46 1014.32 1014.16 1014.00 1013.83 1013.66 1013.49 1013.31 1013.13 1012.94 1012.73 1012.53 1012.31
1015.20 1015.16 1015.10 1015.04 1014.96 1014.88 1014.80 1014.73 1014.69 1014.66 1014.67 1014.71 1014.76 1014.82 1014.88 1014.93 1014.95 1014.94 1014.92 1014.87 1014.82 1014.76 1014.72 1014.68 1014.66 1014.64 1014.63 1014.61 1014.59 1014.55 1014.49 1014.41 1014.31 1014.20 1014.07 1013.93 1013.78 1013.61 1013.43 1013.23 1013.02 1012.80 1012.58
1015.30 1015.30 1015.27 1015.22 1015.13 1015.02 1014.90 1014.78 1014.66 1014.58 1014.54 1014.53 1014.57 1014.63 1014.70 1014.77 1014.82 1014.84 1014.83 1014.79 1014.73 1014.66 1014.58 1014.51 1014.46 1014.41 1014.39 1014.37 1014.36 1014.35 1014.33 1014.29 1014.24 1014.17 1014.07 1013.96 1013.82 1013.66 1013.49 1013.29 1013.09 1012.87 1012.66
1015.27 1015.30 1015.29 1015.24 1015.14 1015.01 1014.84 1014.67 1014.50 1014.37 1014.28 1014.24 1014.26 1014.31 1014.39 1014.47 1014.55 1014.59 1014.59 1014.56 1014.49 1014.40 1014.29 1014.19 1014.10 1014.03 1013.99 1013.96 1013.95 1013.95 1013.94 1013.93 1013.90 1013.85 1013.78 1013.68 1013.56 1013.42 1013.26 1013.09 1012.91 1012.72 1012.53
1015.14 1015.17 1015.17 1015.11 1015.00 1014.83 1014.63 1014.42 1014.21 1014.04 1013.92 1013.86 1013.85 1013.90 1013.99 1014.08 1014.16 1014.21 1014.22 1014.18 1014.10 1013.98 1013.85 1013.71 1013.59 1013.49 1013.41 1013.36 1013.34 1013.32 1013.32 1013.31 1013.28 1013.24 1013.17 1013.09 1012.99 1012.87 1012.75 1012.61 1012.48 1012.34 1012.19
Thickness
5771 5771 5770 5769 5769 5768 5767 5766 5765 5765 5764 5764 5763 5762 5761 5759 5758 5756 5755 5754 5753 5752 5751 5749 5747 5746 5744 5741 5739 5737 5735 5734 5733 5732 5731 5730 5729 5728 5727 5726 5725 5724 5723
5772 5771 5770 5770 5769 5768 5767 5766 5765 5765 5764 5764 5763 5762 5761 5760 5758 5756 5755 5754 5754 5753 5751 5749 5747 5745 5743 5741 5739 5737 5735 5734 5733 5732 5731 5730 5728 5727 5726 5725 5724 5723 5722
5772 5771 5770 5770 5769 5768 5767 5766 5766 5765 5765 5764 5762 5761 5760 5759 5757 5756 5755 5754 5753 5752 5751 5749 5747 5745 5743 5741 5739 5737 5735 5733 5732 5731 5730 5729 5728 5727 5725 5724 5723 5722 5721
5773 5772 5771 5770 5770 5769 5768 5767 5765 5764 5763 5761 5760 5760 5759 5758 5757 5756 5755 5754 5753 5752 5750 5749 5747 5745 5743 5741 5739 5737 5735 5734 5732 5731 5730 5729 5728 5726 5725 5724 5723 5721 5721
5773 5772 5771 5770 5769 5768 5767 5767 5765 5763 5761 5760 5759 5759 5758 5757 5757 5756 5755 5754 5753 5752 5750 5749 5747 5745 5743 5741 5739 5737 5735 5734 5732 5730 5729 5728 5727 5726 5725 5723 5722 5721 5720
5773 5771 5770 5770 5769 5767 5766 5765 5763 5763 5761 5759 5759 5758 5757 5757 5756 5755 5754 5753 5753 5751 5750 5749 5747 5745 5743 5741 5739 5737 5735 5734 5732 5730 5729 5728 5727 5726 5724 5723 5722 5721 5720
5771 5771 5770 5769 5768 5766 5765 5764 5763 5761 5759 5758 5755 5753 5755 5756 5756 5755 5754 5753 5752 5751 5750 5748 5746 5744 5743 5741 5739 5737 5736 5734 5733 5731 5730 5728 5727 5726 5724 5723 5722 5721 5720
5771 5770 5769 5769 5768 5766 5765 5763 5761 5759 5757 5757 5752 5748 5745 5748 5752 5754 5753 5751 5751 5750 5749 5748 5745 5744 5742 5740 5739 5737 5736 5734 5733 5732 5730 5729 5727 5726 5724 5723 5722 5721 5719
5771 5770 5769 5768 5767 5766 5764 5762 5761 5758 5755 5754 5753 5748 5742 5738 5743 5748 5750 5750 5749 5748 5747 5746 5744 5743 5741 5740 5738 5737 5736 5734 5733 5732 5730 5729 5727 5726 5724 5722 5721 5720 5719
5770 5770 5769 5768 5767 5765 5763 5762 5761 5758 5755 5752 5751 5750 5748 5745 5740 5739 5744 5747 5747 5746 5745 5745 5744 5743 5741 5740 5738 5737 5736 5734 5733 5732 5730 5729 5727 5725 5724 5722 5720 5719 5718
5769 5769 5768 5767 5766 5764 5763 5761 5760 5758 5756 5752 5750 5748 5746 5743 5741 5737 5736 5740 5742 5744 5744 5743 5742 5742 5740 5739 5738 5736 5735 5734 5733 5732 5730 5728 5726 5724 5723 5722 5720 5718 5717
5767 5767 5767 5766 5765 5764 5762 5761 5759 5757 5755 5752 5750 5748 5745 5742 5739 5737 5734 5735 5736 5739 5741 5741 5740 5740 5739 5737 5737 5736 5734 5733 5731 5730 5729 5727 5725 5724 5722 5721 5719 5718 5716
5764 5765 5765 5764 5764 5763 5761 5760 5758 5755 5753 5751 5749 5747 5745 5743 5741 5738 5735 5733 5733 5735 5737 5738 5739 5738 5737 5736 5735 5734 5733 5731 5729 5728 5727 5726 5724 5723 5721 5720 5719 5717 5715
5765 5765 5764 5763 5762 5761 5760 5758 5756 5754 5752 5750 5748 5746 5744 5742 5741 5739 5736 5732 5729 5730 5732 5734 5736 5736 5735 5734 5733 5731 5731 5729 5728 5727 5726 5724 5723 5721 5720 5718 5717 5715 5713
5765 5764 5763 5762 5761 5759 5758 5756 5753 5752 5750 5748 5746 5744 5742 5741 5740 5738 5736 5733 5728 5725 5727 5730 5731 5734 5733 5732 5731 5728 5727 5727 5726 5725 5723 5722 5721 5720 5718 5716 5715 5714 5712
5764 5762 5761 5760 5759 5757 5755 5753 5752 5750 5748 5746 5744 5742 5741 5740 5738 5736 5734 5732 5729 5726 5724 5727 5728 5729 5729 5730 5728 5726 5725 5724 5723 5722 5720 5720 5719 5718 5716 5714 5713 5712 5710
5762 5760 5759 5757 5756 5754 5753 5750 5748 5747 5744 5742 5741 5739 5738 5737 5735 5733 5731 5729 5727 5724 5721 5723 5724 5725 5724 5724 5724 5723 5722 5721 5720 5719 5718 5717 5716 5715 5714 5712 5711 5710 5708
5759 5757 5756 5754 5753 5752 5750 5747 5744 5743 5740 5739 5738 5736 5734 5733 5730 5729 5727 5725 5723 5722 5719 5717 5719 5719 5719 5719 5719 5718 5719 5718 5717 5716 5715 5714 5713 5712 5711 5710 5709 5708 5706
5756 5754 5752 5750 5749 5747 5746 5743 5741 5739 5738 5736 5734 5732 5730 5728 5726 5724 5723 5721 5720 5719 5717 5714 5713 5714 5713 5713 5712 5713 5713 5713 5713 5712 5711 5710 5709 5708 5708 5707 5706 5704 5703
5753 5751 5749 5747 5746 5744 5742 5740 5738 5736 5734 5733 5731 5728 5727 5724 5723 5721 5719 5717 5715 5713 5711 5709 5707 5707 5706 5706 5705 5705 5705 5705 5706 5707 5706 5706 5705 5704 5703 5702 5702 5700 5699
5750 5747 5745 5743 5742 5740 5739 5736 5734 5732 5730 5728 5727 5725 5723 5722 5720 5718 5716 5713 5710 5708 5705 5703 5702 5700 5699 5698 5698 5698 5698 5698 5699 5700 5699 5700 5699 5699 5698 5698 5697 5696 5695
5745 5743 5741 5739 5737 5737 5735 5732 5731 5728 5727 5725 5723 5721 5720 5718 5716 5714 5713 5710 5707 5704 5701 5698 5697 5695 5695 5694 5693 5692 5690 5690 5691 5693 5692 5694 5693 5693 5693 5693 5693 5692 5691
5741 5738 5737 5735 5733 5732 5730 5729 5727 5725 5723 5720 5719 5717 5716 5715 5712 5710 5708 5705 5702 5700 5699 5697 5694 5693 5692 5691 5689 5687 5685 5684 5685 5686 5685 5687 5688 5687 5688 5688 5688 5687 5686
5736 5734 5732 5730 5728 5727 5725 5724 5722 5719 5717 5716 5714 5712 5709 5708 5707 5704 5702 5700 5697 5696 5694 5692 5691 5691 5689 5687 5684 5683 5681 5679 5679 5679 5678 5678 5681 5681 5683 5682 5682 5682 5681
5731 5729 5728 5725 5723 5722 5721 5718 5715 5712 5711 5710 5709 5707 5705 5703 5701 5698 5696 5693 5692 5691 5690 5688 5686 5685 5683 5681 5679 5676 5673 5672 5673 5673 5672 5671 5673 5673 5674 5675 5675 5675 5674
5726 5724 5722 5720 5719 5717 5715 5713 5709 5707 5705 5704 5702 5701 5699 5697 5695 5692 5690 5688 5685 5685 5683 5682 5679 5678 5677 5675 5673 5671 5669 5667 5666 5666 5667 5665 5665 5664 5665 5667 5666 5666 5665